GW2273 Weather Reports


time (UTC)temp
F
wind
direction
speed
knots
gust
knots
rain 1hr
in
rain 24hr
in
rain mn
in
humidity
%
barometer
mb
20260505201003 67 9 7.0 15.6 0.00 0.00 0.00 51 1009.3
20260505200524 67 360 6.1 14.8 0.00 0.00 0.00 49 1009.2
20260505200003 67 346 6.1 14.8 0.00 0.00 0.00 49 1009.2
20260505195524 68 348 6.1 13.9 0.00 0.00 0.00 48 1009.5
20260505195003 68 343 7.0 13.0 0.00 0.00 0.00 48 1009.4
20260505194503 68 343 6.1 13.0 0.00 0.00 0.00 47 1009.4
20260505194003 67 345 5.2 12.2 0.00 0.00 0.00 48 1009.5
20260505193503 67 347 5.2 11.3 0.00 0.00 0.00 47 1009.6
20260505193003 67 345 6.1 13.0 0.00 0.00 0.00 49 1009.4
20260505192503 67 341 7.8 14.8 0.00 0.00 0.00 48 1009.4
20260505192003 66 346 8.7 14.8 0.00 0.00 0.00 48 1009.1
20260505191503 66 350 7.8 14.8 0.00 0.00 0.00 49 1008.9
20260505191024 66 345 7.8 14.8 0.00 0.00 0.00 50 1009.0
20260505190503 66 347 8.7 14.8 0.00 0.00 0.00 49 1009.1
20260505190003 66 348 7.8 14.8 0.00 0.00 0.00 50 1009.0
20260505185503 66 349 7.8 13.9 0.00 0.00 0.00 49 1009.0
20260505185003 66 345 7.0 13.9 0.00 0.00 0.00 49 1009.5
20260505184503 67 335 6.1 13.0 0.00 0.00 0.00 49 1009.4
20260505184024 67 342 6.1 13.0 0.00 0.00 0.00 50 1009.4
20260505183503 66 349 7.0 14.8 0.00 0.00 0.00 50 1009.8
20260505183003 67 344 7.0 14.8 0.00 0.00 0.00 49 1009.9
20260505182503 66 351 7.0 13.0 0.00 0.00 0.00 49 1010.0
20260505182003 67 2 5.2 11.3 0.00 0.00 0.00 49 1010.0
20260505181503 67 351 5.2 13.0 0.00 0.00 0.00 49 1010.2
20260505181003 66 346 6.1 13.0 0.00 0.00 0.00 50 1010.3
20260505180503 67 344 7.0 13.9 0.00 0.00 0.00 50 1010.2
20260505180003 67 350 7.0 13.9 0.00 0.00 0.00 50 1009.8
20260505175524 67 355 6.1 12.2 0.00 0.00 0.00 50 1009.9
20260505175003 68 346 7.0 15.6 0.00 0.00 0.00 49 1009.7
20260505174503 68 350 6.1 15.6 0.00 0.00 0.00 49 1010.2
20260505174024 67 3 5.2 12.2 0.00 0.00 0.00 51 1009.6
20260505173524 66 3 5.2 12.2 0.00 0.00 0.00 52 1009.5
20260505173003 66 353 6.1 13.9 0.00 0.00 0.00 52 1009.2
20260505172524 66 354 6.1 13.9 0.00 0.00 0.00 54 1008.9
20260505172003 66 2 7.0 16.5 0.00 0.00 0.00 54 1008.6
20260505171503 66 350 7.8 16.5 0.00 0.00 0.00 55 1008.7
20260505171003 65 345 7.8 16.5 0.00 0.00 0.00 54 1008.9
20260505170524 66 351 7.0 16.5 0.00 0.00 0.00 54 1008.7
20260505170003 66 342 7.0 14.8 0.00 0.00 0.00 55 1009.1
20260505165503 65 339 8.7 14.8 0.00 0.00 0.00 55 1009.0
20260505165003 66 344 9.6 19.1 0.00 0.00 0.00 56 1009.0
20260505164503 66 343 8.7 19.1 0.00 0.00 0.00 56 1008.8
20260505164003 67 346 7.0 14.8 0.00 0.00 0.00 55 1008.6
20260505163524 67 347 7.0 13.9 0.00 0.00 0.00 56 1008.6
20260505163024 66 340 7.0 13.9 0.00 0.00 0.00 58 1008.6
20260505162503 66 343 7.0 15.6 0.00 0.00 0.00 58 1008.4
20260505162003 66 349 7.8 15.6 0.00 0.00 0.00 59 1008.1
20260505161503 66 351 7.0 13.9 0.00 0.00 0.00 59 1007.9
20260505161003 66 348 7.0 14.8 0.00 0.00 0.00 61 1007.8
20260505160503 66 345 7.0 14.8 0.00 0.00 0.00 61 1007.7
20260505153024 68 338 8.7 13.9 0.00 0.00 0.00 62 1007.0
20260505152503 68 335 8.7 13.9 0.00 0.00 0.00 63 1006.8
20260505152024 68 334 8.7 13.9 0.00 0.00 0.00 64 1006.7
20260505151503 69 332 9.6 16.5 0.00 0.00 0.00 64 1006.6
20260505151003 69 333 9.6 16.5 0.00 0.00 0.00 63 1006.2
20260505150503 69 336 8.7 14.8 0.00 0.00 0.00 64 1006.1
20260505140503 68 342 7.8 14.8 0.00 0.00 0.00 65 1005.7
20260505125003 71 299 4.3 9.6 0.00 0.00 0.00 30 1003.4
20260505124524 70 289 3.5 7.8 0.00 0.00 0.00 30 1003.5
20260505124003 70 285 2.6 7.8 0.00 0.00 0.00 31 1003.3
20260505123503 70 284 2.6 7.8 0.00 0.00 0.00 31 1003.4
20260505123003 70 286 2.6 7.0 0.00 0.00 0.00 30 1003.0
20260505122503 70 288 2.6 7.0 0.00 0.00 0.00 31 1003.0
20260505122003 70 276 2.6 7.0 0.00 0.00 0.00 30 1002.8
20260505121503 70 244 1.7 7.0 0.00 0.00 0.00 30 1002.7
20260505121003 70 229 1.7 7.0 0.00 0.00 0.00 30 1002.7
20260505120503 70 228 1.7 6.1 0.00 0.00 0.00 30 1002.6
20260505120003 70 224 0.9 6.1 0.00 0.00 0.00 30 1002.5
20260505115503 71 222 0.9 5.2 0.00 0.00 0.00 30 1002.6
20260505115003 71 235 0.9 5.2 0.00 0.00 0.00 30 1002.5
20260505114503 71 238 0.9 6.1 0.00 0.00 0.00 30 1002.4
20260505114003 71 223 0.9 6.1 0.00 0.00 0.00 29 1002.4
20260505113503 72 223 1.7 5.2 0.00 0.00 0.00 29 1002.3
20260505113024 72 237 1.7 8.7 0.00 0.00 0.00 29 1002.2
20260505112503 72 231 2.6 8.7 0.00 0.00 0.00 29 1002.2
20260505112003 72 215 3.5 7.8 0.00 0.00 0.00 29 1001.9
20260505111503 72 210 3.5 7.8 0.00 0.00 0.00 29 1001.9
20260505111003 72 208 2.6 7.8 0.00 0.00 0.00 29 1001.8
20260505110524 72 222 2.6 7.0 0.00 0.00 0.00 29 1001.8
20260505102003 73 207 2.6 7.8 0.00 0.00 0.00 27 1001.5
20260505101503 73 202 3.5 7.8 0.00 0.00 0.00 26 1001.4
20260505101024 73 204 3.5 7.8 0.00 0.00 0.00 26 1001.4
20260505100503 73 206 3.5 7.8 0.00 0.00 0.00 26 1001.5
20260505100003 73 204 3.5 7.8 0.00 0.00 0.00 27 1001.4
20260505095503 73 204 3.5 7.8 0.00 0.00 0.00 27 1001.4
20260505095003 73 201 3.5 7.8 0.00 0.00 0.00 27 1001.4
20260505094503 73 201 3.5 7.8 0.00 0.00 0.00 27 1001.3
20260505094003 73 199 4.3 7.8 0.00 0.00 0.00 27 1001.3
20260505093524 73 199 3.5 7.8 0.00 0.00 0.00 27 1001.3
20260505093003 73 197 3.5 7.8 0.00 0.00 0.00 27 1001.2
20260505092503 73 196 3.5 7.8 0.00 0.00 0.00 27 1001.0
20260505092003 73 197 4.3 9.6 0.00 0.00 0.00 27 1001.1
20260505091503 73 198 4.3 9.6 0.00 0.00 0.00 27 1001.1
20260505091003 73 199 3.5 8.7 0.00 0.00 0.00 27 1001.2
20260505090503 73 199 3.5 8.7 0.00 0.00 0.00 27 1001.3
20260505090003 73 199 3.5 10.4 0.00 0.00 0.00 27 1001.2
20260505085503 73 204 3.5 10.4 0.00 0.00 0.00 27 1001.3
20260505085003 73 201 4.3 10.4 0.00 0.00 0.00 28 1001.3
20260505084503 73 193 4.3 9.6 0.00 0.00 0.00 28 1001.4
20260505084003 73 192 3.5 8.7 0.00 0.00 0.00 28 1001.4
20260505083503 73 194 3.5 6.1 0.00 0.00 0.00 28 1001.3
20260505083003 74 196 2.6 7.0 0.00 0.00 0.00 28 1001.5
20260505082524 74 198 2.6 7.0 0.00 0.00 0.00 28 1001.4
20260505082003 74 198 1.7 5.2 0.00 0.00 0.00 28 1001.5
20260505081503 74 191 1.7 5.2 0.00 0.00 0.00 28 1001.6
20260505081003 74 194 2.6 7.8 0.00 0.00 0.00 28 1001.5
20260505080503 74 197 2.6 7.8 0.00 0.00 0.00 29 1001.7
20260505080003 74 195 3.5 7.0 0.00 0.00 0.00 29 1001.7
20260505075503 74 194 3.5 7.0 0.00 0.00 0.00 29 1001.7
20260505075003 74 193 2.6 6.1 0.00 0.00 0.00 29 1001.7
20260505074503 74 197 2.6 6.1 0.00 0.00 0.00 28 1001.8
20260505074003 75 198 2.6 6.1 0.00 0.00 0.00 28 1001.9
20260505073524 75 198 3.5 6.1 0.00 0.00 0.00 27 1001.9
20260505073003 76 203 1.7 6.1 0.00 0.00 0.00 27 1002.0
20260505072503 76 209 1.7 4.3 0.00 0.00 0.00 26 1001.8
20260505072003 76 209 1.7 5.2 0.00 0.00 0.00 26 1001.9
20260505071503 77 202 3.5 7.8 0.00 0.00 0.00 26 1002.0
20260505071003 77 196 3.5 7.8 0.00 0.00 0.00 25 1002.1
20260505070503 78 198 2.6 6.1 0.00 0.00 0.00 25 1002.1
20260505070003 78 198 2.6 7.8 0.00 0.00 0.00 24 1002.0
20260505065524 78 198 2.6 7.8 0.00 0.00 0.00 24 1002.3
20260505065003 79 225 1.7 6.1 0.00 0.00 0.00 23 1002.2
20260505064503 79 256 1.7 6.1 0.00 0.00 0.00 23 1002.1
20260505064003 79 261 1.7 5.2 0.00 0.00 0.00 23 1002.2
20260505063503 79 265 1.7 7.8 0.00 0.00 0.00 23 1002.3
20260505063003 79 262 1.7 7.8 0.00 0.00 0.00 24 1002.3
20260505062503 79 250 1.7 7.8 0.00 0.00 0.00 24 1002.4
20260505062003 79 249 1.7 5.2 0.00 0.00 0.00 24 1002.4
20260505061503 79 243 1.7 6.1 0.00 0.00 0.00 24 1002.5
20260505061003 79 235 0.9 6.1 0.00 0.00 0.00 25 1002.6
20260505060503 78 209 0.9 6.1 0.00 0.00 0.00 25 1002.7
20260505060003 78 191 1.7 6.1 0.00 0.00 0.00 25 1002.7
20260505055503 78 199 1.7 5.2 0.00 0.00 0.00 26 1002.6
20260505055003 78 206 1.7 6.1 0.00 0.00 0.00 26 1002.6
20260505054524 78 205 1.7 6.1 0.00 0.00 0.00 26 1002.8
20260505054003 78 202 1.7 6.1 0.00 0.00 0.00 26 1002.7
20260505053524 78 203 1.7 6.1 0.00 0.00 0.00 26 1002.8
20260505053003 79 201 1.7 5.2 0.00 0.00 0.00 26 1002.7
20260505052503 79 196 2.6 6.1 0.00 0.00 0.00 26 1002.8
20260505052003 79 200 2.6 7.0 0.00 0.00 0.00 25 1002.8
20260505051503 79 203 2.6 7.0 0.00 0.00 0.00 25 1002.7
20260505051003 80 201 2.6 7.0 0.00 0.00 0.00 25 1002.8
20260505050503 80 206 2.6 7.8 0.00 0.00 0.00 25 1002.8
20260505041503 82 216 2.6 7.0 0.00 0.00 0.00 23 1002.9
20260505041003 82 207 3.5 8.7 0.00 0.00 0.00 23 1002.8
20260505040503 82 205 3.5 8.7 0.00 0.00 0.00 23 1002.9
20260505040024 82 203 3.5 8.7 0.00 0.00 0.00 22 1002.9
20260505035503 82 200 3.5 8.7 0.00 0.00 0.00 22 1002.8
20260505035003 82 199 3.5 8.7 0.00 0.00 0.00 22 1002.7
20260505034503 83 201 4.3 8.7 0.00 0.00 0.00 21 1002.7
20260505034003 83 204 4.3 8.7 0.00 0.00 0.00 21 1002.7
20260505033503 83 203 3.5 8.7 0.00 0.00 0.00 21 1002.6
20260505033003 83 206 3.5 9.6 0.00 0.00 0.00 21 1002.6
20260505032503 84 209 4.3 9.6 0.00 0.00 0.00 20 1002.7
20260505032003 84 212 3.5 8.7 0.00 0.00 0.00 20 1002.7
20260505031524 84 206 2.6 7.0 0.00 0.00 0.00 20 1002.5
20260505031003 84 208 2.6 7.0 0.00 0.00 0.00 20 1002.6
20260505030503 84 214 2.6 7.8 0.00 0.00 0.00 20 1002.5
20260505030003 84 210 2.6 8.7 0.00 0.00 0.00 19 1002.5
20260505025503 85 223 2.6 8.7 0.00 0.00 0.00 19 1002.3
20260505025024 85 230 2.6 7.8 0.00 0.00 0.00 20 1002.4
20260505024524 85 217 3.5 9.6 0.00 0.00 0.00 20 1002.5
20260505024024 85 209 3.5 9.6 0.00 0.00 0.00 20 1002.5
20260505023503 84 207 4.3 8.7 0.00 0.00 0.00 21 1002.4
20260505023024 84 200 4.3 13.0 0.00 0.00 0.00 22 1002.3
20260505022503 84 191 5.2 13.0 0.00 0.00 0.00 26 1002.4
20260505022024 84 189 4.3 9.6 0.00 0.00 0.00 31 1002.3
20260505021503 85 195 5.2 8.7 0.00 0.00 0.00 30 1002.3
20260505021003 85 194 6.1 15.6 0.00 0.00 0.00 32 1002.4
20260505020503 85 191 7.8 17.4 0.00 0.00 0.00 33 1002.3
20260505020003 85 187 8.7 17.4 0.00 0.00 0.00 34 1002.3
20260505015503 85 178 9.6 17.4 0.00 0.00 0.00 36 1002.3
20260505015003 85 178 9.6 17.4 0.00 0.00 0.00 37 1002.0
20260505014524 85 179 9.6 14.8 0.00 0.00 0.00 37 1002.1
20260505014024 86 177 8.7 16.5 0.00 0.00 0.00 36 1002.0
20260505013503 86 177 8.7 16.5 0.00 0.00 0.00 33 1002.1
20260505013003 86 181 7.8 13.9 0.00 0.00 0.00 31 1002.0
20260505012524 87 182 7.8 12.2 0.00 0.00 0.00 29 1002.0
20260505012003 87 178 7.0 12.2 0.00 0.00 0.00 29 1001.8
20260505011503 87 178 7.0 13.0 0.00 0.00 0.00 29 1001.7
20260505011024 87 181 7.0 13.0 0.00 0.00 0.00 29 1001.7
20260505010503 88 186 6.1 11.3 0.00 0.00 0.00 29 1001.5
20260505010003 88 185 7.0 13.9 0.00 0.00 0.00 28 1001.5
20260505005503 88 183 7.0 13.9 0.00 0.00 0.00 28 1001.6
20260505005004 88 183 7.0 13.0 0.00 0.00 0.00 28 1001.5
20260505004503 88 185 7.0 13.0 0.00 0.00 0.00 28 1001.5
20260505004003 88 187 7.8 14.8 0.00 0.00 0.00 28 1001.7
20260505003524 89 187 7.8 17.4 0.00 0.00 0.00 27 1001.7
20260505003003 89 185 8.7 17.4 0.00 0.00 0.00 27 1001.7
20260505002503 89 187 7.8 13.9 0.00 0.00 0.00 27 1001.8
20260505002003 89 189 7.8 13.9 0.00 0.00 0.00 27 1002.0
20260505001524 89 190 7.8 13.9 0.00 0.00 0.00 27 1002.1
20260505001003 89 194 7.8 17.4 0.00 0.00 0.00 27 1002.1
20260505000503 90 199 7.8 17.4 0.00 0.00 0.00 27 1002.0
20260505000003 90 205 7.0 16.5 0.00 0.00 0.00 26 1002.0
20260504235503 90 204 7.8 18.2 0.00 0.00 0.00 26 1002.0
20260504235003 90 204 7.8 18.2 0.00 0.00 0.00 26 1002.0
20260504234503 90 207 7.0 16.5 0.00 0.00 0.00 26 1002.1
20260504234003 90 212 6.1 14.8 0.00 0.00 0.00 26 1002.1
20260504233524 91 220 7.0 16.5 0.00 0.00 0.00 25 1002.1
20260504233003 91 217 8.7 16.5 0.00 0.00 0.00 25 1002.2
20260504232503 91 215 7.0 15.6 0.00 0.00 0.00 25 1002.3
20260504232003 91 208 6.1 13.0 0.00 0.00 0.00 25 1002.4
20260504231503 91 203 6.1 18.2 0.00 0.00 0.00 26 1002.4
20260504231003 91 204 7.0 18.2 0.00 0.00 0.00 26 1002.4
20260504230503 91 201 9.6 25.2 0.00 0.00 0.00 26 1002.3
20260504230003 91 199 11.3 25.2 0.00 0.00 0.00 26 1002.3
20260504225524 91 201 9.6 20.9 0.00 0.00 0.00 25 1002.4
20260504225003 92 204 7.8 20.0 0.00 0.00 0.00 24 1002.5
20260504224503 92 205 7.8 16.5 0.00 0.00 0.00 24 1002.4
20260504224003 92 209 7.0 18.2 0.00 0.00 0.00 24 1002.4
20260504223503 92 207 6.1 18.2 0.00 0.00 0.00 23 1002.5
20260504223024 92 203 5.2 14.8 0.00 0.00 0.00 23 1002.6
20260504222503 92 206 6.1 14.8 0.00 0.00 0.00 23 1002.6
20260504222003 92 204 7.0 16.5 0.00 0.00 0.00 23 1002.5
20260504221503 92 204 7.8 16.5 0.00 0.00 0.00 23 1002.5
20260504221003 92 203 7.8 17.4 0.00 0.00 0.00 24 1002.5
20260504220503 92 206 6.1 17.4 0.00 0.00 0.00 24 1002.5
20260504220003 92 209 5.2 12.2 0.00 0.00 0.00 24 1002.6
20260504215503 92 204 6.1 13.0 0.00 0.00 0.00 24 1002.8
20260504215003 93 240 5.2 13.0 0.00 0.00 0.00 23 1002.8
20260504214503 93 254 5.2 13.0 0.00 0.00 0.00 22 1002.6
20260504214024 94 225 6.1 22.6 0.00 0.00 0.00 22 1002.8
20260504213524 94 223 7.0 22.6 0.00 0.00 0.00 22 1002.9
20260504213003 94 217 4.3 12.2 0.00 0.00 0.00 23 1002.9
20260504212503 93 236 4.3 12.2 0.00 0.00 0.00 23 1003.0
20260504212003 93 229 5.2 12.2 0.00 0.00 0.00 22 1003.0
20260504211524 94 207 6.1 12.2 0.00 0.00 0.00 22 1003.0
20260504211003 94 207 7.0 16.5 0.00 0.00 0.00 22 1003.1
20260504210503 94 215 6.1 16.5 0.00 0.00 0.00 22 1003.2
20260504210003 94 220 4.3 11.3 0.00 0.00 0.00 22 1003.5
20260504205503 94 219 4.3 11.3 0.00 0.00 0.00 22 1003.5
20260504205024 95 235 3.5 11.3 0.00 0.00 0.00 21 1003.5
20260504204503 95 266 4.3 11.3 0.00 0.00 0.00 22 1003.7
20260504204024 94 274 4.3 11.3 0.00 0.00 0.00 22 1003.8
20260504203503 94 274 4.3 10.4 0.00 0.00 0.00 22 1003.9
20260504203003 94 279 4.3 13.9 0.00 0.00 0.00 23 1004.1
20260504202503 94 263 5.2 13.9 0.00 0.00 0.00 22 1004.0
20260504202024 95 249 4.3 12.2 0.00 0.00 0.00 22 1003.8
20260504201503 95 224 4.3 13.9 0.00 0.00 0.00 22 1004.0